Regional Weather Roundup
Issued by NWS Newport/Morehead, NC

Home | Current Version | Previous Version | Text Only | Print | Product List | Glossary On
Versions: 1 2 3 4 5 6 7 8 9 10 11 12 13 14 15 16 17 18 19 20 21 22 23 24 25 26 27 28 29 30 31 32 33 34 35 36 37 38 39 40 41 42 43 44 45 46 47 48 49 50
000
ASUS42 KMHX 151126
RWRMHX
WEATHER ROUNDUP FOR EASTERN NORTH CAROLINA
NATIONAL WEATHER SERVICE NEWPORT/MOREHEAD CITY NC
600 AM EST FRI NOV 15 2019

NOTE: "FAIR" INDICATES FEW OR NO CLOUDS BELOW 12,000 FEET
WITH NO SIGNIFICANT WEATHER AND/OR OBSTRUCTIONS TO VISIBILITY

NCZ015>017-031-032-045>047-102-103-151200-
NORTH COAST

CITY           SKY/WX    TMP DP  RH WIND       PRES   REMARKS
EDENTON        NOT AVBL
ELIZABETH CITY LGT RAIN  46  44  93 N8        30.24S
KITTY HAWK     DRIZZLE   47  46  99 N8        30.20F
MANTEO         DRIZZLE   47  46  95 N12G17    30.22S

$$

NCZ045>047-081-094-103-104-151200-
CENTRAL COAST

CITY           SKY/WX    TMP DP  RH WIND       PRES   REMARKS
FRISCO         CLOUDY    56  53  90 VRB6      30.17S

$$

NCZ095-097-098-100-101-151200-
SOUTHERN COAST

CITY           SKY/WX    TMP DP  RH WIND       PRES   REMARKS
BEAUFORT       LGT RAIN  48  47  96 N10       30.15F
CEDAR ISLAND   NOT AVBL
JACKSONVILLE   LGT RAIN  45  43  93 N8        30.17F
PINEY ISLAND   LGT RAIN  49  46  90 N15       30.17F
WILMINGTON     HVY RAIN  47  45  93 N10       30.15S FOG


$$

NCZ011>013-027>030-043-044-078>080-089-090>093-098-151200-
COASTAL PLAIN

CITY           SKY/WX    TMP DP  RH WIND       PRES   REMARKS
AHOSKIE        NOT AVBL
CLINTON        CLOUDY    44  44 100 N8        30.20S
ELIZABETHTOWN  RAIN      44  43  98 N5        30.18F FOG
GOLDSBORO      LGT RAIN  44  43  95 NE5       30.18F FOG
GREENVILLE     DRIZZLE   43  43 100 CALM      30.21F
HAVELOCK       LGT RAIN  47  44  90 N9        30.19F FOG
KENANSVILLE    RAIN      45  43  93 N7        30.19S
KINSTON        LGT RAIN  45  43  95 N5        30.20S
NEW BERN       LGT RAIN  44  42  93 N12       30.19F
RICHLANDS      LGT RAIN  44  43  96 NE10      30.18F
ROCKY MOUNT    LGT RAIN  43  43 100 N6        30.23S
WASHINGTON     DRIZZLE   45  44  96 NE6       30.20F
WHITEVILLE     LGT RAIN  45  44  97 NE6       30.16S

$$

AMZ130-135-150-152-154-156-158-170-250-252-270-ANZ085-086-088-633-658-670-151200-
MARINE OBSERVATIONS

STATION/POSITION TIME  TEMP    WIND        PRES    WAVE   SWELL
                       AIR SEA DIR/SP/G            HT/PER HT/PER
                 (UTC) (F)     (DEG/KT/KT) (MB)    (FT/S) (FT/S)
64 E VA BEACH    1050   64 62  160/  2/  4 1022.7    3/ 5   3/ 5
DUCK             1042   47 58  330/ 17/ 23 1022.8
2 E DUCK         1100      61                N/A     4/ 4   2/11
10 NE DUCK       1100      62                N/A     4/ 5   2/13
OREGON INLET     1042   49 54  330/ 13/ 19 1022.5
13E OREGON INLT  1116      64                N/A     4/ 6   2/ 8
HATTERAS CG      1042   53 62  340/ 17/ 19 1021.3
DIAMOND BUOY     1110   72 79  130/ 16/ 19 1020.2
CAPE LOOKOUT     1100   48     360/ 15/ 17 1021.1
BEAUFORT LAB     1042   48 55   10/ 11/ 15 1022.0
30 SE NEW RVR IN 1108   60 74   40/ 17/ 25 1019.3
30 SE NEW RVR IN 1100      73                N/A     5/ 6
27 SE WRIGHTSVLE 1108   61      40/ 17/ 23 1018.8
5 SE WRIGHTSVLE  1008   53 64   20/ 17/ 23 1019.5
27 SE WRIGHTSVL  1108   61      40/ 17/ 23 1018.8
FRYING PAN BUOY  1110   68 76  360/ 10/ 14 1018.4
225 S CAPE HAT   1110   73     130/ 10/ 12 1019.4
41 SE CHARLESTON 1110      77   20/ 21/ 27 1016.8

$$



USA.gov is the U.S. government's official web portal to all federal, state and local government web resources and services.